Flag for U.S.A. Weather past 2 weeks in Newport News, Virginia, U.S.A.

Now
38 °F

Clear.


Feels Like: 32 °F
Forecast: 34 / 46 °F
Wind: 8 mph from North

Location: Newport News / Williamsburg International Airport

Current Time: Dec 18, 2014 at 5:51:35 AM

Latest Report: Dec 18, 2014 at 4:54 AM


Visibility: 10 mi

Pressure: 30.10 "Hg

Humidity: 63%

Dew point: 26 °F

Location of Newport NewsLocation

Historic Weather in Newport News — Graph

°F

Newport News temperature yesterday

Maximum temperature yesterday: 62 °F (at 12:54 PM)
Minimum temperature yesterday: 41 °F (at 7:54 AM)
Average temperature yesterday: 51 °F

Past Weeks' High & Low Weather Summary

 TemperatureHumidityPressure
High62 °F (Dec 17, 12:54 PM)90% (Dec 3, 4:54 AM)30.51 "Hg (Dec 3, 4:54 AM)
Low30 °F (Dec 13, 12:54 AM)30% (Dec 12, 12:54 PM)29.80 "Hg (Dec 10, 1:54 PM)
Average46 °F66%30.12 "Hg
* Reported Dec 3 4:54 AM — Dec 18 4:54 AM, Newport News, Weather by CustomWeather, © 2014

Note: Actual official high and low records may vary slightly from our data, if they occured in-between our weather recording intervals... More about our weather records

Advertising

Newport News weather history for previous 24 hours

 ConditionsComfort  
Time TempWeatherWind HumidityBarometerVisibility
4:54 AM
Dec 18
38 °FClear.8 mph63%30.10 "Hg10 mi
3:54 AM39 °FClear.5 mph60%30.09 "Hg10 mi
2:54 AM41 °FClear.7 mph58%30.10 "Hg10 mi
1:54 AM41 °FClear.5 mph62%30.08 "Hg10 mi
12:54 AM44 °FClear.9 mph55%30.06 "Hg10 mi
11:54 PM
Dec 17
45 °FClear.6 mph60%30.03 "Hg10 mi
10:54 PM47 °FClear.3 mph61%30.03 "Hg10 mi
9:54 PM45 °FClear.3 mph68%30.02 "Hg10 mi
8:54 PM47 °FClear.3 mph66%30.02 "Hg10 mi
7:54 PM49 °FClear.3 mph61%30.02 "Hg10 mi
6:54 PM51 °FClear.6 mph56%30.01 "Hg10 mi
5:54 PM54 °FClear.6 mph51%30.00 "Hg10 mi
4:54 PM56 °FClear.9 mph51%29.98 "Hg10 mi
3:54 PM60 °FSunny.13 mph44%29.96 "Hg10 mi
2:54 PM62 °FSunny.13 mph39%29.96 "Hg10 mi
1:54 PM61 °FSunny.14 mph42%29.96 "Hg10 mi
12:54 PM62 °FSunny.10 mph44%29.98 "Hg10 mi
11:54 AM59 °FSunny.13 mph49%30.00 "Hg10 mi
10:54 AM56 °FSunny.12 mph58%30.03 "Hg10 mi
9:54 AM53 °FSunny.10 mph66%30.05 "Hg10 mi
8:54 AM47 °FFog.3 mph86%30.04 "Hg5 mi
7:54 AM41 °FLight rain. Fog.No wind89%30.02 "Hg0 mi
6:54 AM45 °FFog.3 mph86%29.99 "Hg4 mi
5:54 AM45 °FFog.3 mph86%29.97 "Hg2 mi
5:04 AM46 °FFog.N/A86%29.95 "Hg3 mi
Weather by CustomWeather, © 2014

See weather overviewHow to use our weather pages